Prairie Du Chien, WI

1:09 AM CDT on April 21, 2018 (GMT -0500)
Prairie Du Chien Municipal

Weather History for KPDC - March, 2013

Change the Weather History Date:

Monday, March 4, 2013

  Actual Average Record
Temperature  
Mean Temperature 28 °F -  
Max Temperature 32 °F 41 °F 70 °F (1983)
Min Temperature 23 °F 21 °F -11 °F (1978)
Degree Days  
Heating Degree Days 38    
Moisture  
Dew Point 17 °F    
Average Humidity 65    
Maximum Humidity 93    
Minimum Humidity 54    
Precipitation  
Precipitation 0.00 in - - ()
Sea Level Pressure  
Sea Level Pressure 30.00 in    
Wind  
Wind Speed 9 mph (ESE)    
Max Wind Speed 18 mph    
Max Gust Speed 26 mph    
Visibility 9 miles    
Events Snow    
Averages and records for this station are not official NWS values.
T = Trace of Precipitation, MM = Missing Value Source: NWS Daily Summary

Daily Weather History Graph

Daily Weather History Graph

Search for Another Location

Airport or City:

Astronomy

Mar. 04, 2013 Rise Set
Actual Time 6:35 AM CST 5:57 PM CST
Civil Twilight 6:06 AM CST 6:26 PM CST
Nautical Twilight 5:33 AM CST 6:59 PM CST
Astronomical Twilight 5:00 AM CST 7:32 PM CST
Moon 12:51 AM CST (3/4) 10:33 AM CST (3/4)
Length of Visible Light 12h 19m
Length of Day
11h 22m
Waning Gibbous, 52% of the Moon is Illuminated
Mar 4
Waning Gibbous
Mar 4
Last Quarter
Mar 11
New
Mar 19
First Quarter
Mar 27
Full

Hourly Weather History & Observations

Time (CST) Temp. Windchill Dew Point Humidity Pressure Visibility Wind Dir Wind Speed Gust Speed Precip Events Conditions
12:15 AM 24.8 °F 16.1 °F 10.4 °F 54% 30.06 in 10.0 mi ESE 8.1 mph - N/A   Scattered Clouds
12:35 AM 24.8 °F 16.9 °F 10.4 °F 54% 30.07 in 10.0 mi ESE 6.9 mph - N/A   Overcast
12:55 AM 24.8 °F 16.9 °F 10.4 °F 54% 30.07 in 10.0 mi ESE 6.9 mph - N/A   Overcast
1:15 AM 24.8 °F 16.1 °F 10.4 °F 54% 30.06 in 10.0 mi ESE 8.1 mph - N/A   Overcast
1:55 AM 24.8 °F 16.9 °F 10.4 °F 54% 30.06 in 10.0 mi ESE 6.9 mph - N/A   Mostly Cloudy
2:15 AM 24.8 °F 16.9 °F 10.4 °F 54% 30.05 in 10.0 mi ESE 6.9 mph - N/A   Overcast
2:35 AM 24.8 °F 19.1 °F 12.2 °F 59% 30.05 in 10.0 mi ESE 4.6 mph - N/A   Overcast
2:55 AM 23.0 °F 14.7 °F 12.2 °F 63% 30.04 in 10.0 mi ESE 6.9 mph - N/A   Overcast
3:35 AM 24.8 °F 16.9 °F 12.2 °F 59% 30.03 in 10.0 mi ESE 6.9 mph - N/A   Overcast
3:55 AM 24.8 °F 17.9 °F 12.2 °F 59% 30.03 in 10.0 mi East 5.8 mph - N/A   Overcast
4:15 AM 24.8 °F 16.1 °F 12.2 °F 59% 30.03 in 10.0 mi East 8.1 mph - N/A   Overcast
4:35 AM 24.8 °F 16.1 °F 12.2 °F 59% 30.02 in 10.0 mi East 8.1 mph - N/A   Overcast
4:55 AM 24.8 °F 16.9 °F 12.2 °F 59% 30.02 in 10.0 mi East 6.9 mph - N/A   Overcast
5:15 AM 24.8 °F 16.9 °F 12.2 °F 59% 30.02 in 10.0 mi East 6.9 mph - N/A   Overcast
5:35 AM 24.8 °F 15.3 °F 12.2 °F 59% 30.02 in 10.0 mi East 9.2 mph - N/A   Overcast
5:55 AM 24.8 °F 17.9 °F 12.2 °F 59% 30.02 in 10.0 mi ESE 5.8 mph - N/A   Overcast
6:15 AM 24.8 °F 16.9 °F 12.2 °F 59% 30.02 in 10.0 mi ESE 6.9 mph - N/A   Overcast
6:35 AM 24.8 °F 14.6 °F 12.2 °F 59% 30.02 in 10.0 mi East 10.4 mph - N/A   Overcast
6:55 AM 24.8 °F 14.0 °F 10.4 °F 54% 30.01 in 10.0 mi East 11.5 mph - N/A   Overcast
7:15 AM 24.8 °F 13.4 °F 10.4 °F 54% 30.01 in 10.0 mi East 12.7 mph 16.1 mph N/A   Overcast
7:35 AM 24.8 °F 14.6 °F 12.2 °F 59% 30.01 in 10.0 mi East 10.4 mph - N/A   Overcast
7:55 AM 24.8 °F 16.1 °F 12.2 °F 59% 30.02 in 10.0 mi ESE 8.1 mph - N/A   Overcast
8:15 AM 24.8 °F 15.3 °F 12.2 °F 59% 30.01 in 10.0 mi ESE 9.2 mph - N/A   Overcast
8:35 AM 26.6 °F 19.1 °F 12.2 °F 55% 30.02 in 10.0 mi ESE 6.9 mph 10.4 mph N/A   Overcast
8:55 AM 26.6 °F 16.8 °F 14.0 °F 59% 30.01 in 10.0 mi East 10.4 mph - N/A   Overcast
9:15 AM 26.6 °F 16.8 °F 14.0 °F 59% 30.01 in 7.0 mi ESE 10.4 mph 16.1 mph N/A   Overcast
9:35 AM 24.8 °F 14.6 °F 17.6 °F 74% 30.01 in 3.0 mi ESE 10.4 mph 16.1 mph N/A   Overcast
9:55 AM 24.8 °F 14.6 °F 17.6 °F 74% 30.01 in 3.0 mi ESE 10.4 mph - N/A   Overcast
10:15 AM 26.6 °F 15.2 °F 19.4 °F 74% 30.01 in 4.0 mi East 13.8 mph 19.6 mph N/A   Overcast
10:35 AM 26.6 °F 15.2 °F 19.4 °F 74% 30.00 in 5.0 mi ESE 13.8 mph 17.3 mph N/A   Overcast
10:55 AM 26.6 °F 14.3 °F 19.4 °F 74% 30.00 in 5.0 mi East 16.1 mph - N/A   Overcast
11:15 AM 26.6 °F 15.2 °F 19.4 °F 74% 30.00 in 5.0 mi East 13.8 mph 20.7 mph N/A   Overcast
11:35 AM 26.6 °F 16.2 °F 17.6 °F 69% 30.00 in 10.0 mi ESE 11.5 mph 23.0 mph N/A   Overcast
11:55 AM 26.6 °F 15.2 °F 17.6 °F 69% 30.00 in 10.0 mi ESE 13.8 mph 21.9 mph N/A   Overcast
12:15 PM 28.4 °F 18.0 °F 17.6 °F 64% 29.99 in 10.0 mi East 12.7 mph 20.7 mph N/A   Overcast
12:55 PM 28.4 °F 17.5 °F 19.4 °F 69% 29.98 in 5.0 mi East 13.8 mph 17.3 mph N/A   Overcast
1:15 PM 28.4 °F 17.0 °F 19.4 °F 69% 29.97 in 7.0 mi East 15.0 mph 20.7 mph N/A   Overcast
1:35 PM 28.4 °F 16.6 °F 19.4 °F 69% 29.96 in 10.0 mi East 16.1 mph 25.3 mph N/A   Overcast
1:55 PM 30.2 °F 19.3 °F 19.4 °F 64% 29.95 in 10.0 mi East 15.0 mph 25.3 mph N/A   Overcast
2:15 PM 30.2 °F 19.8 °F 19.4 °F 64% 29.95 in 10.0 mi East 13.8 mph 26.5 mph N/A   Overcast
2:35 PM 30.2 °F 19.3 °F 19.4 °F 64% 29.94 in 10.0 mi ESE 15.0 mph 25.3 mph N/A   Overcast
2:55 PM 30.2 °F 18.1 °F 19.4 °F 64% 29.94 in 10.0 mi East 18.4 mph 24.2 mph N/A   Overcast
3:15 PM 30.2 °F 19.8 °F 19.4 °F 64% 29.94 in 10.0 mi East 13.8 mph 19.6 mph N/A   Overcast
3:35 PM 30.2 °F 21.3 °F 19.4 °F 64% 29.94 in 10.0 mi East 10.4 mph 23.0 mph N/A   Overcast
3:55 PM 30.2 °F 18.5 °F 19.4 °F 64% 29.95 in 10.0 mi East 17.3 mph 20.7 mph N/A   Overcast
4:15 PM 30.2 °F 20.8 °F 21.2 °F 69% 29.95 in 10.0 mi East 11.5 mph 20.7 mph N/A   Overcast
4:35 PM 30.2 °F 20.2 °F 21.2 °F 69% 29.95 in 10.0 mi East 12.7 mph 20.7 mph N/A   Overcast
4:55 PM 30.2 °F 20.8 °F 21.2 °F 69% 29.96 in 10.0 mi East 11.5 mph 18.4 mph N/A   Overcast
5:15 PM 30.2 °F 20.8 °F 21.2 °F 69% 29.96 in 10.0 mi East 11.5 mph 17.3 mph N/A   Overcast
5:35 PM 30.2 °F 20.8 °F 23.0 °F 75% 29.96 in 10.0 mi ESE 11.5 mph 20.7 mph N/A   Overcast
5:55 PM 30.2 °F 20.8 °F 23.0 °F 75% 29.97 in 10.0 mi ESE 11.5 mph 20.7 mph N/A   Overcast
6:15 PM 30.2 °F 21.3 °F 23.0 °F 75% 29.97 in 10.0 mi East 10.4 mph - N/A   Overcast
6:35 PM 30.2 °F 21.3 °F 23.0 °F 75% 29.98 in 10.0 mi East 10.4 mph - N/A   Overcast
6:55 PM 32.0 °F 24.8 °F 23.0 °F 69% 29.98 in 10.0 mi East 8.1 mph - N/A   Overcast
7:15 PM 32.0 °F 23.6 °F 21.2 °F 64% 29.99 in 10.0 mi East 10.4 mph - N/A   Overcast
7:35 PM 32.0 °F 25.6 °F 21.2 °F 64% 29.99 in 10.0 mi East 6.9 mph - N/A   Overcast
7:55 PM 32.0 °F 23.0 °F 21.2 °F 64% 29.99 in 10.0 mi East 11.5 mph - N/A   Overcast
8:35 PM 30.2 °F 20.8 °F 21.2 °F 69% 29.99 in 10.0 mi East 11.5 mph - N/A   Overcast
8:55 PM 30.2 °F 22.6 °F 21.2 °F 69% 30.00 in 10.0 mi East 8.1 mph - N/A   Overcast
9:15 PM 30.2 °F 20.8 °F 21.2 °F 69% 29.99 in 10.0 mi East 11.5 mph 17.3 mph N/A   Overcast
9:35 PM 30.2 °F 20.8 °F 21.2 °F 69% 29.99 in 10.0 mi ESE 11.5 mph 18.4 mph N/A   Overcast
9:55 PM 30.2 °F 21.9 °F 21.2 °F 69% 30.00 in 10.0 mi East 9.2 mph - N/A   Overcast
10:15 PM 30.2 °F 22.6 °F 21.2 °F 69% 30.01 in 10.0 mi East 8.1 mph - N/A   Overcast
10:35 PM 30.2 °F 22.6 °F 19.4 °F 64% 30.02 in 10.0 mi ESE 8.1 mph - N/A   Overcast
10:55 PM 30.2 °F - 21.2 °F 69% 30.01 in 10.0 mi Calm Calm - N/A   Overcast
11:15 PM 30.2 °F 24.3 °F 23.0 °F 75% 30.02 in 2.5 mi ESE 5.8 mph - N/A Snow Light Snow
11:35 PM 28.4 °F 24.6 °F 24.8 °F 86% 30.01 in 1.8 mi East 3.5 mph - N/A Snow Light Snow
11:55 PM 26.6 °F 22.6 °F 24.8 °F 93% 30.00 in 0.8 mi East 3.5 mph - N/A Snow Snow